Time,TemperatureF,DewpointF,PressureIn,WindDirection,WindDirectionDegrees,WindSpeedMPH,WindSpeedGustMPH,Humidity,HourlyPrecipIn,Conditions,Clouds,dailyrainin,SoftwareType,DateUTC
2013-04-02 10:02:00,36.0,19.0,28.92,NNW,342,3.0,14.0,50,0.00,,,0.00,,2013-04-02 14:02:00,
2013-04-02 10:12:00,36.0,19.0,28.92,NNW,342,3.0,14.0,50,0.00,,,0.00,,2013-04-02 14:12:00,
2013-04-02 10:23:00,37.0,20.0,29.03,NNW,336,2.0,13.0,49,0.00,,,0.00,,2013-04-02 14:23:00,
2013-04-02 10:32:00,37.0,20.0,29.03,NNW,342,7.0,15.0,49,0.00,,,0.00,,2013-04-02 14:32:00,
2013-04-02 10:42:00,37.0,20.0,29.03,NNW,342,7.0,15.0,49,0.00,,,0.00,,2013-04-02 14:42:00,
2013-04-02 10:52:00,38.0,21.0,29.07,North,349,7.0,13.0,50,0.00,,,0.00,,2013-04-02 14:52:00,
2013-04-02 11:02:00,38.0,22.0,28.89,North,350,5.0,10.0,52,0.00,,,0.00,,2013-04-02 15:02:00,
2013-04-02 11:11:00,38.0,22.0,28.89,North,350,5.0,10.0,52,0.00,,,0.00,,2013-04-02 15:11:00,
2013-04-02 11:22:00,39.0,22.0,28.89,NNW,334,5.0,12.0,50,0.00,,,0.00,,2013-04-02 15:22:00,
2013-04-02 11:33:00,38.0,22.0,28.92,NNW,338,4.0,14.0,51,0.00,,,0.00,,2013-04-02 15:33:00,
2013-04-02 11:43:00,38.0,22.0,28.92,NNW,338,4.0,14.0,51,0.00,,,0.00,,2013-04-02 15:43:00,
2013-04-02 11:58:00,40.0,22.0,29.22,NNW,333,4.0,10.0,49,0.00,,,0.00,,2013-04-02 15:58:00,
2013-04-02 12:04:00,39.0,21.0,29.22,NNW,336,6.0,15.0,49,0.00,,,0.00,,2013-04-02 16:04:00,
2013-04-02 12:24:00,39.0,22.0,29.01,NNW,346,2.0,9.0,50,0.00,,,0.00,,2013-04-02 16:24:00,
2013-04-02 12:36:00,41.0,23.0,29.01,NNW,343,5.0,10.0,49,0.00,,,0.00,,2013-04-02 16:36:00,
2013-04-02 12:44:00,41.0,23.0,29.01,NNW,343,5.0,10.0,49,0.00,,,0.00,,2013-04-02 16:44:00,
2013-04-02 12:53:00,39.0,20.0,28.98,North,356,4.0,16.0,47,0.00,,,0.00,,2013-04-02 16:53:00,
2013-04-02 13:05:00,39.0,20.0,28.98,North,352,4.0,14.0,46,0.00,,,0.00,,2013-04-02 17:05:00,
2013-04-02 13:13:00,39.0,20.0,28.98,North,352,4.0,14.0,46,0.00,,,0.00,,2013-04-02 17:13:00,
2013-04-02 13:25:00,41.0,21.0,29.02,NNW,332,4.0,10.0,45,0.00,,,0.00,,2013-04-02 17:25:00,
2013-04-02 13:34:00,42.0,21.0,29.02,NNW,346,5.0,17.0,43,0.00,,,0.00,,2013-04-02 17:34:00,
2013-04-02 13:43:00,42.0,21.0,29.02,NNW,346,5.0,17.0,43,0.00,,,0.00,,2013-04-02 17:43:00,
2013-04-02 14:04:00,42.0,22.0,29.02,NNW,336,4.0,10.0,44,0.00,,,0.00,,2013-04-02 18:04:00,
2013-04-02 14:12:00,42.0,22.0,29.02,NNW,336,4.0,10.0,44,0.00,,,0.00,,2013-04-02 18:12:00,
2013-04-02 14:23:00,43.0,22.0,29.02,NNW,347,7.0,12.0,43,0.00,,,0.00,,2013-04-02 18:23:00,
2013-04-02 14:34:00,42.0,21.0,29.01,North,355,4.0,16.0,42,0.00,,,0.00,,2013-04-02 18:34:00,
2013-04-02 14:43:00,42.0,21.0,29.01,North,355,4.0,16.0,42,0.00,,,0.00,,2013-04-02 18:43:00,
2013-04-02 14:57:00,43.0,22.0,29.26,NNW,342,6.0,13.0,43,0.00,,,0.00,,2013-04-02 18:57:00,
2013-04-02 15:03:00,43.0,22.0,29.26,NNW,348,6.0,15.0,42,0.00,,,0.00,,2013-04-02 19:03:00,
2013-04-02 15:13:00,43.0,22.0,29.26,NNW,348,6.0,15.0,42,0.00,,,0.00,,2013-04-02 19:13:00,
2013-04-02 15:23:00,44.0,22.0,29.26,NNW,345,4.0,10.0,42,0.00,,,0.00,,2013-04-02 19:23:00,
2013-04-02 15:34:00,44.0,22.0,29.20,North,351,5.0,12.0,41,0.00,,,0.00,,2013-04-02 19:34:00,
2013-04-02 15:45:00,44.0,22.0,29.20,North,351,5.0,12.0,41,0.00,,,0.00,,2013-04-02 19:45:00,
2013-04-02 15:57:00,45.0,23.0,29.20,NNW,337,3.0,10.0,41,0.00,,,0.00,,2013-04-02 19:57:00,
2013-04-02 16:03:00,44.0,21.0,28.88,North,349,6.0,13.0,40,0.00,,,0.00,,2013-04-02 20:03:00,
2013-04-02 16:14:00,44.0,21.0,28.88,North,349,6.0,13.0,40,0.00,,,0.00,,2013-04-02 20:14:00,
2013-04-02 16:33:00,44.0,21.0,28.88,North,360,2.0,12.0,39,0.00,,,0.00,,2013-04-02 20:33:00,
2013-04-02 16:44:00,44.0,21.0,28.88,North,360,2.0,12.0,39,0.00,,,0.00,,2013-04-02 20:44:00,
2013-04-02 16:55:00,44.0,21.0,28.88,North,360,2.0,12.0,39,0.00,,,0.00,,2013-04-02 20:55:00,
2013-04-02 17:04:00,44.0,21.0,28.85,North,349,2.0,14.0,39,0.00,,,0.00,,2013-04-02 21:04:00,
2013-04-02 17:13:00,44.0,21.0,28.85,North,349,2.0,14.0,39,0.00,,,0.00,,2013-04-02 21:13:00,
2013-04-02 17:23:00,44.0,20.0,29.08,NNW,343,6.0,13.0,38,0.00,,,0.00,,2013-04-02 21:23:00,
2013-04-02 17:34:00,43.0,20.0,29.08,NNW,329,3.0,11.0,39,0.00,,,0.00,,2013-04-02 21:34:00,
2013-04-02 17:44:00,43.0,20.0,29.08,NNW,329,3.0,11.0,39,0.00,,,0.00,,2013-04-02 21:44:00,
2013-04-02 17:56:00,43.0,19.0,29.08,North,356,8.0,14.0,38,0.00,,,0.00,,2013-04-02 21:56:00,
2013-04-02 18:04:00,43.0,19.0,29.08,North,358,1.0,18.0,38,0.00,,,0.00,,2013-04-02 22:04:00,
2013-04-02 18:14:00,43.0,19.0,29.08,North,358,1.0,18.0,38,0.00,,,0.00,,2013-04-02 22:14:00,
2013-04-02 18:24:00,43.0,19.0,28.99,NNW,337,5.0,11.0,38,0.00,,,0.00,,2013-04-02 22:24:00,
2013-04-02 18:33:00,42.0,19.0,28.99,North,350,8.0,13.0,39,0.00,,,0.00,,2013-04-02 22:33:00,
2013-04-02 18:43:00,42.0,19.0,28.99,North,350,8.0,13.0,39,0.00,,,0.00,,2013-04-02 22:43:00,
2013-04-02 18:54:00,42.0,19.0,28.99,NNW,341,5.0,12.0,39,0.00,,,0.00,,2013-04-02 22:54:00,
2013-04-02 19:03:00,41.0,19.0,28.99,NNW,348,2.0,11.0,40,0.00,,,0.00,,2013-04-02 23:03:00,
2013-04-02 19:13:00,41.0,20.0,28.87,NNW,346,3.0,7.0,42,0.00,,,0.00,,2013-04-02 23:13:00,
2013-04-02 19:23:00,41.0,20.0,28.87,NNW,346,3.0,7.0,42,0.00,,,0.00,,2013-04-02 23:23:00,
2013-04-02 19:37:00,41.0,-99.9,28.95,North,-999,-999.0,0.0,-999,0.00,,,0.00,,2013-04-02 23:37:00,
2013-04-02 19:43:00,41.0,-99.9,28.95,North,-999,-999.0,0.0,-999,0.00,,,0.00,,2013-04-02 23:43:00,